This is the latest recevied weather packets stored in our database for station/object LU3MCV-13. If no packets are shown the sender has not sent any weather packets the latest 10 day(s).
| Time | Temp. | Humidity | Pressure | Rain* | Wind** | Luminosity | Snow |
|---|---|---|---|---|---|---|---|
| 1777655524 | 20° C | 5% | 933 hPa | - | - | - | - |
| 1777654624 | 21.11° C | 5% | 933.1 hPa | - | - | - | - |
| 1777653724 | 20° C | 5% | 932.9 hPa | - | - | - | - |
| 1777652824 | 20° C | 5% | 933.1 hPa | - | - | - | - |
| 1777651924 | 20° C | 5% | 933 hPa | - | - | - | - |
| 1777651024 | 20° C | 5% | 933 hPa | - | - | - | - |
| 1777650124 | 20° C | 5% | 932.9 hPa | - | - | - | - |
| 1777649224 | 18.89° C | 5% | 933 hPa | - | - | - | - |
| 1777648324 | 18.89° C | 5% | 932.8 hPa | - | - | - | - |
| 1777647424 | 18.89° C | 5% | 932.9 hPa | - | - | - | - |
| 1777646524 | 17.78° C | 8% | 932.7 hPa | - | - | - | - |
| 1777645624 | 17.78° C | 8% | 932.5 hPa | - | - | - | - |
| 1777644724 | 17.78° C | 8% | 932.5 hPa | - | - | - | - |
| 1777643824 | 17.22° C | 13% | 932.4 hPa | - | - | - | - |
| 1777642924 | 17.22° C | 10% | 932.2 hPa | - | - | - | - |
| 1777642024 | 16.11° C | 21% | 931.9 hPa | - | - | - | - |
| 1777641124 | 16.11° C | 25% | 931.5 hPa | - | - | - | - |
| 1777640224 | 15° C | 26% | 931.1 hPa | - | - | - | - |
| 1777639323 | 15° C | 26% | 930.6 hPa | - | - | - | - |
| 1777638424 | 15° C | 26% | 930.1 hPa | - | - | - | - |
| 1777637524 | 15° C | 26% | 929.6 hPa | - | - | - | - |
| 1777636623 | 13.89° C | 27% | 928.8 hPa | - | - | - | - |
| 1777635724 | 13.89° C | 28% | 928.2 hPa | - | - | - | - |
| 1777634824 | 13.89° C | 29% | 928 hPa | - | - | - | - |
| 1777633924 | 12.78° C | 29% | 927.8 hPa | - | - | - | - |
* Rain since midnight (hover to see other rain measurements)
** Current wind speed in m/s (hover to see current wind gust speed)